Abilene Dyess, TX

2:16 PM CDT on September 22, 2019 (GMT -0500)
Dyess Air Force Base

Weather History for KDYS - July, 2019

Change the Weather History Date:

Saturday, July 20, 2019

  Actual Average Record
Temperature  
Mean Temperature 88 °F -  
Max Temperature 99 °F 95 °F 106 °F (2018)
Min Temperature 75 °F 74 °F 67 °F (2008)
Cooling Degree Days 22    
Growing Degree Days 38 (Base 50)    
Moisture  
Dew Point 60 °F    
Average Humidity 41    
Maximum Humidity 73    
Minimum Humidity 22    
Precipitation  
Precipitation 0.00 in - - ()
Sea Level Pressure  
Sea Level Pressure 29.74 in    
Wind  
Wind Speed 15 mph (SSE)    
Max Wind Speed 24 mph    
Max Gust Speed 37 mph    
Visibility 10 miles    
Events      
Averages and records for this station are not official NWS values.
T = Trace of Precipitation, MM = Missing Value Source: NWS Daily Summary

Daily Weather History Graph

Daily Weather History Graph

Search for Another Location

Airport or City:

Astronomy

Jul. 20, 2019 Rise Set
Actual Time 6:45 AM CDT 8:45 PM CDT
Civil Twilight 6:18 AM CDT 9:12 PM CDT
Nautical Twilight 5:45 AM CDT 9:46 PM CDT
Astronomical Twilight 5:09 AM CDT 10:21 PM CDT
Moon 11:23 PM CDT (7/20) 10:03 AM CDT (7/20)
Length of Visible Light 14h 54m
Length of Day
13h 59m
Waning Gibbous, 87% of the Moon is Illuminated
Jul 20
Waning Gibbous
Jul 24
Last Quarter
Jul 31
New
Aug 7
First Quarter
Aug 15
Full

Hourly Weather History & Observations

Time (CDT) Temp. Heat Index Dew Point Humidity Pressure Visibility Wind Dir Wind Speed Gust Speed Precip Events Conditions
12:56 AM 82.4 °F 83.0 °F 61.3 °F 49% 29.77 in 10.0 mi SSE 13.8 mph - N/A   Clear
1:56 AM 82.2 °F 83.0 °F 61.7 °F 50% 29.77 in 10.0 mi SSE 13.8 mph - N/A   Clear
3:56 AM 79.9 °F - 65.7 °F 62% 29.75 in 10.0 mi South 17.3 mph - N/A   Clear
4:56 AM 78.6 °F - 66.7 °F 67% 29.75 in 10.0 mi SSE 12.7 mph - N/A   Clear
5:56 AM 77.0 °F - 66.7 °F 70% 29.76 in 10.0 mi SSE 13.8 mph - N/A   Clear
6:56 AM 75.4 °F - 66.0 °F 73% 29.78 in 10.0 mi SSE 11.5 mph - N/A   Clear
7:56 AM 77.4 °F - 65.1 °F 66% 29.79 in 10.0 mi SSE 12.7 mph 19.6 mph N/A   Clear
8:56 AM 81.5 °F 82.8 °F 63.1 °F 54% 29.81 in 10.0 mi SSE 10.4 mph - N/A   Clear
9:56 AM 84.2 °F 85.6 °F 64.0 °F 51% 29.80 in 10.0 mi South 12.7 mph - N/A   Clear
10:56 AM 88.0 °F 89.0 °F 63.3 °F 44% 29.79 in 10.0 mi South 20.7 mph 25.3 mph N/A   Clear
11:56 AM 91.2 °F 92.2 °F 62.8 °F 39% 29.77 in 10.0 mi South 24.2 mph 28.8 mph N/A   Partly Cloudy
12:56 PM 93.7 °F 94.5 °F 61.9 °F 35% 29.77 in 10.0 mi South 23.0 mph 27.6 mph N/A   Partly Cloudy
1:56 PM 95.7 °F 95.5 °F 60.1 °F 30% 29.75 in 10.0 mi SSE 21.9 mph 28.8 mph N/A   Overcast
2:56 PM 97.7 °F 97.6 °F 59.9 °F 28% 29.73 in 10.0 mi SSE 20.7 mph 26.5 mph N/A   Clear
3:22 PM 96.8 °F 96.2 °F 59.0 °F 28% 29.72 in 10.0 mi SSE 19.6 mph 28.8 mph N/A   Clear
3:56 PM 98.4 °F 97.8 °F 57.6 °F 26% 29.70 in 10.0 mi South 19.6 mph 26.5 mph N/A   Clear
4:56 PM 99.0 °F 98.1 °F 56.8 °F 25% 29.70 in 10.0 mi South 13.8 mph - N/A   Clear
5:47 PM 100.4 °F 98.8 °F 55.4 °F 22% 29.68 in 10.0 mi South 16.1 mph 36.8 mph N/A   Clear
5:56 PM 99.5 °F 97.6 °F 53.8 °F 22% 29.69 in 10.0 mi SSE 18.4 mph 23.0 mph N/A   Clear
6:56 PM 98.6 °F 96.8 °F 54.3 °F 23% 29.67 in 10.0 mi South 16.1 mph - N/A   Clear
7:56 PM 96.1 °F 94.5 °F 55.6 °F 26% 29.68 in 10.0 mi SSE 17.3 mph - N/A   Clear
8:56 PM 91.6 °F 89.6 °F 54.9 °F 29% 29.69 in 10.0 mi SE 11.5 mph - N/A   Clear
9:56 PM 87.6 °F 85.9 °F 54.9 °F 33% 29.71 in 10.0 mi SE 9.2 mph - N/A   Clear
10:56 PM 84.7 °F 83.9 °F 57.0 °F 39% 29.74 in 10.0 mi SSE 13.8 mph - N/A   Clear
11:56 PM 84.6 °F 84.2 °F 58.8 °F 42% 29.73 in 10.0 mi SSE 17.3 mph - N/A   Clear